Home   Weather   Pointe-Noire   Past weeks

Flag for Congo Past Weather in Pointe-Noire, Congo — Yesterday and Last 2 Weeks

Now
77 °F

Passing clouds.


Feels Like: 78 °F
Forecast: 76 / 82 °F
Wind: 8 mph from Southwest

Location: Pointe Airport-Noire

Current Time: Oct 1, 2016 at 1:02:53 AM

Latest Report: Oct 1, 2016 at 12:00 AM


Visibility: 4 mi

Pressure: 29.92 "Hg

Humidity: 89%

Dew Point: 73 °F

Location of Pointe-NoireLocation

Past Weather in Pointe-Noire — Graph

°F

Pointe-Noire Temperature Yesterday

Maximum temperature yesterday: 81 °F (at 3:00 PM)
Minimum temperature yesterday: 75 °F (at 5:00 AM)
Average temperature yesterday: 77 °F

High & Low Weather Summary for the Past Weeks

 TemperatureHumidityPressure
High93 °F (Sep 22, 1:00 AM)100% (Sep 16, 2:00 AM)30.04 "Hg (Sep 16, 2:00 AM)
Low72 °F (Sep 16, 6:00 AM)25% (Sep 27, 4:00 AM)29.83 "Hg (Sep 29, 4:00 PM)
Average77 °F83%29.94 "Hg
* Reported Sep 15 10:00 PM — Sep 30 10:00 PM, Pointe-Noire, Weather by CustomWeather, © 2016

Note: Actual official high and low records may vary slightly from our data, if they occured in-between our weather recording intervals... More about our weather records

Advertising

Pointe-Noire Weather History for the Previous 24 Hours

Scroll right to see more
 ConditionsComfort  
Time TempWeatherWind HumidityBarometerVisibility
10:00 PM
Fri, Sep 30
75 °FMostly cloudy.8 mph94%29.95 "Hg4 mi
9:00 PM75 °FPartly cloudy.10 mph94%29.92 "Hg4 mi
8:00 PM77 °FMostly cloudy.7 mph89%29.89 "Hg4 mi
7:00 PM77 °FDrizzle. Mostly cloudy.8 mph89%29.86 "Hg4 mi
6:00 PM81 °FMore clouds than sun.12 mph79%29.83 "Hg4 mi
5:00 PM81 °FMore clouds than sun.10 mph79%29.83 "Hg4 mi
4:00 PM81 °FBroken clouds.14 mph79%29.83 "Hg5 mi
3:00 PM81 °FBroken clouds.10 mph79%29.86 "Hg5 mi
2:00 PM79 °FBroken clouds.10 mph84%29.89 "Hg5 mi
1:00 PM79 °FBroken clouds.14 mph84%29.92 "Hg4 mi
12:00 PM77 °FMore clouds than sun.13 mph94%29.95 "Hg4 mi
11:00 AM75 °FDrizzle. Mostly cloudy.9 mph100%29.95 "Hg2 mi
10:00 AM75 °FDrizzle. Mostly cloudy.7 mph94%29.98 "Hg2 mi
9:00 AM75 °FDrizzle. Mostly cloudy.10 mph94%29.95 "Hg2 mi
8:00 AM75 °FDrizzle. Mostly cloudy.9 mph94%29.95 "Hg2 mi
7:00 AM75 °FDrizzle. Mostly cloudy.6 mph94%29.92 "Hg2 mi
6:00 AM77 °FFog.9 mph94%29.89 "Hg2 mi
5:00 AM75 °FMostly cloudy.10 mph100%29.89 "Hg4 mi
4:00 AM77 °FLow clouds.8 mph89%29.86 "Hg4 mi
3:00 AM77 °FLow clouds.8 mph89%29.86 "Hg4 mi
2:00 AM77 °FDrizzle. Low clouds.8 mph89%29.86 "Hg4 mi
1:00 AM77 °FLow clouds.9 mph89%29.89 "Hg4 mi
Weather by CustomWeather, © 2016

See weather overviewHow to use our weather pages